This is the latest recevied weather packets stored in our database for station/object SP3SWJ-13. If no packets are shown the sender has not sent any weather packets the latest 10 day(s).
| Time | Temp. | Humidity | Pressure | Rain* | Wind** | Luminosity | Snow |
|---|---|---|---|---|---|---|---|
| 1778139225 | 8.33° C | 80% | 1002.4 hPa | - | - | 114 W/m² | - |
| 1778138923 | 8.33° C | 80% | 1002.4 hPa | - | - | 96 W/m² | - |
| 1778138622 | 8.33° C | 81% | 1002.4 hPa | - | - | 90 W/m² | - |
| 1778138322 | 8.33° C | 82% | 1002.3 hPa | - | - | 70 W/m² | - |
| 1778138021 | 8.33° C | 81% | 1002.2 hPa | - | - | 63 W/m² | - |
| 1778137720 | 8.33° C | 81% | 1002.2 hPa | - | - | 64 W/m² | - |
| 1778137419 | 8.33° C | 82% | 1002.2 hPa | - | - | 60 W/m² | - |
| 1778137118 | 7.78° C | 82% | 1002.2 hPa | - | - | 75 W/m² | - |
| 1778136817 | 8.33° C | 82% | 1002.1 hPa | - | - | 65 W/m² | - |
| 1778136516 | 8.33° C | 82% | 1002.2 hPa | - | - | 41 W/m² | - |
| 1778136216 | 7.78° C | 81% | 1002.2 hPa | - | - | 43 W/m² | - |
| 1778135915 | 8.33° C | 81% | 1002 hPa | - | - | 42 W/m² | - |
| 1778135613 | 8.33° C | 81% | 1001.8 hPa | - | - | 37 W/m² | - |
| 1778135313 | 8.33° C | 81% | 1001.7 hPa | - | - | 52 W/m² | - |
| 1778135012 | 8.33° C | 82% | 1001.6 hPa | - | - | 48 W/m² | - |
| 1778134710 | 7.78° C | 82% | 1001.6 hPa | - | - | 34 W/m² | - |
| 1778134410 | 7.78° C | 83% | 1001.7 hPa | - | - | 57 W/m² | - |
| 1778134109 | 7.78° C | 83% | 1001.7 hPa | - | - | 37 W/m² | - |
| 1778133808 | 7.78° C | 84% | 1001.8 hPa | - | - | 33 W/m² | - |
| 1778133507 | 7.78° C | 84% | 1001.7 hPa | - | - | 28 W/m² | - |
| 1778133205 | 7.78° C | 85% | 1001.8 hPa | - | - | 28 W/m² | - |
| 1778132905 | 7.78° C | 85% | 1001.7 hPa | - | - | 26 W/m² | - |
| 1778132604 | 7.78° C | 85% | 1001.6 hPa | - | - | 25 W/m² | - |
| 1778132303 | 7.78° C | 85% | 1001.5 hPa | - | - | 19 W/m² | - |
| 1778132002 | 7.78° C | 85% | 1001.4 hPa | - | - | 23 W/m² | - |
* Rain since midnight (hover to see other rain measurements)
** Current wind speed in m/s (hover to see current wind gust speed)